Time,TemperatureF,DewpointF,PressureIn,WindDirection,WindDirectionDegrees,WindSpeedMPH,WindSpeedGustMPH,Humidity,HourlyPrecipIn,Conditions,Clouds,dailyrainin,SoftwareType,DateUTC
2013-04-21 00:13:00,27.3,16.0,30.29,SW,233,0.0,-999.0,62,-99.99,,,0.00,weatherlink.com 1.10,2013-04-21 05:13:00,
2013-04-21 00:28:00,27.6,17.0,30.29,SW,233,0.0,-999.0,65,-99.99,,,0.00,weatherlink.com 1.10,2013-04-21 05:28:00,
2013-04-21 00:43:00,27.8,18.0,30.29,SW,233,0.0,-999.0,67,-99.99,,,0.00,weatherlink.com 1.10,2013-04-21 05:43:00,
2013-04-21 00:58:00,28.1,18.0,30.30,SW,233,0.0,-999.0,67,-99.99,,,0.00,weatherlink.com 1.10,2013-04-21 05:58:00,
2013-04-21 01:13:00,28.4,18.0,30.30,SW,233,0.0,-999.0,66,-99.99,,,0.00,weatherlink.com 1.10,2013-04-21 06:13:00,
2013-04-21 01:28:00,28.8,19.0,30.30,SW,233,0.0,-999.0,66,-99.99,,,0.00,weatherlink.com 1.10,2013-04-21 06:28:00,
2013-04-21 01:43:00,29.5,19.0,30.30,SW,233,0.0,-999.0,64,-99.99,,,0.00,weatherlink.com 1.10,2013-04-21 06:43:00,
2013-04-21 01:58:00,29.8,19.0,30.30,SW,233,0.0,-999.0,64,-99.99,,,0.00,weatherlink.com 1.10,2013-04-21 06:58:00,
2013-04-21 02:13:00,30.3,19.0,30.29,SW,233,0.0,-999.0,63,-99.99,,,0.00,weatherlink.com 1.10,2013-04-21 07:13:00,
2013-04-21 02:28:00,30.6,19.0,30.29,SW,233,0.0,-999.0,62,-99.99,,,0.00,weatherlink.com 1.10,2013-04-21 07:28:00,
2013-04-21 02:43:00,30.9,18.0,30.29,SW,233,0.0,-999.0,59,-99.99,,,0.00,weatherlink.com 1.10,2013-04-21 07:43:00,
2013-04-21 02:59:00,31.5,18.0,30.29,SW,233,0.0,-999.0,57,-99.99,,,0.00,weatherlink.com 1.10,2013-04-21 07:59:00,
2013-04-21 03:14:00,31.8,18.0,30.28,SW,233,0.0,-999.0,56,-99.99,,,0.00,weatherlink.com 1.10,2013-04-21 08:14:00,
2013-04-21 03:29:00,31.9,18.0,30.28,SW,233,0.0,-999.0,58,-99.99,,,0.00,weatherlink.com 1.10,2013-04-21 08:29:00,
2013-04-21 03:44:00,32.1,18.0,30.28,SW,233,0.0,-999.0,57,-99.99,,,0.00,weatherlink.com 1.10,2013-04-21 08:44:00,
2013-04-21 03:59:00,32.2,18.0,30.28,ESE,120,0.0,-999.0,56,-99.99,,,0.00,weatherlink.com 1.10,2013-04-21 08:59:00,
2013-04-21 04:14:00,32.4,19.0,30.28,ESE,120,0.0,-999.0,58,-99.99,,,0.00,weatherlink.com 1.10,2013-04-21 09:14:00,
2013-04-21 04:29:00,32.4,19.0,30.28,SE,136,0.0,-999.0,58,-99.99,,,0.00,weatherlink.com 1.10,2013-04-21 09:29:00,
2013-04-21 04:44:00,33.1,20.0,30.29,ESE,122,0.0,-999.0,60,-99.99,,,0.00,weatherlink.com 1.10,2013-04-21 09:44:00,
2013-04-21 04:59:00,33.7,25.0,30.30,SW,223,5.0,-999.0,70,-99.99,,,0.00,weatherlink.com 1.10,2013-04-21 09:59:00,
2013-04-21 05:14:00,33.1,27.0,30.30,South,171,0.0,-999.0,77,-99.99,,,0.00,weatherlink.com 1.10,2013-04-21 10:14:00,
2013-04-21 05:29:00,32.4,27.0,30.31,SSW,211,0.0,-999.0,79,-99.99,,,0.00,weatherlink.com 1.10,2013-04-21 10:29:00,
2013-04-21 05:44:00,31.9,27.0,30.32,SSW,211,0.0,-999.0,81,-99.99,,,0.00,weatherlink.com 1.10,2013-04-21 10:44:00,
2013-04-21 05:59:00,31.6,27.0,30.31,SSW,211,0.0,-999.0,84,-99.99,,,0.00,weatherlink.com 1.10,2013-04-21 10:59:00,
2013-04-21 06:14:00,31.3,28.0,30.31,SSW,211,0.0,-999.0,86,-99.99,,,0.00,weatherlink.com 1.10,2013-04-21 11:14:00,
2013-04-21 06:29:00,31.0,28.0,30.31,SSW,211,0.0,-999.0,88,-99.99,,,0.00,weatherlink.com 1.10,2013-04-21 11:29:00,
2013-04-21 06:44:00,31.0,28.0,30.31,South,182,1.0,-999.0,89,-99.99,,,0.00,weatherlink.com 1.10,2013-04-21 11:44:00,
2013-04-21 06:59:00,31.2,29.0,30.32,SSE,148,0.0,-999.0,90,-99.99,,,0.00,weatherlink.com 1.10,2013-04-21 11:59:00,
2013-04-21 07:14:00,31.3,29.0,30.31,East,83,0.0,-999.0,91,-99.99,,,0.00,weatherlink.com 1.10,2013-04-21 12:14:00,
2013-04-21 07:29:00,31.8,30.0,30.32,ESE,123,1.0,-999.0,91,-99.99,,,0.00,weatherlink.com 1.10,2013-04-21 12:29:00,
2013-04-21 07:44:00,32.1,30.0,30.32,SSE,152,2.0,-999.0,92,-99.99,,,0.00,weatherlink.com 1.10,2013-04-21 12:44:00,
2013-04-21 07:59:00,32.4,30.0,30.31,ESE,106,1.0,-999.0,92,-99.99,,,0.00,weatherlink.com 1.10,2013-04-21 12:59:00,
2013-04-21 08:14:00,32.5,31.0,30.31,SE,129,0.0,-999.0,92,-99.99,,,0.00,weatherlink.com 1.10,2013-04-21 13:14:00,
2013-04-21 08:29:00,32.7,31.0,30.31,SE,138,2.0,-999.0,92,-99.99,,,0.00,weatherlink.com 1.10,2013-04-21 13:29:00,
2013-04-21 08:44:00,32.8,31.0,30.31,South,191,3.0,-999.0,92,-99.99,,,0.00,weatherlink.com 1.10,2013-04-21 13:44:00,
2013-04-21 08:59:00,32.9,31.0,30.30,SE,124,2.0,-999.0,92,-99.99,,,0.01,weatherlink.com 1.10,2013-04-21 13:59:00,
2013-04-21 09:14:00,33.1,31.0,30.30,South,179,0.0,-999.0,91,-99.99,,,0.01,weatherlink.com 1.10,2013-04-21 14:14:00,
2013-04-21 09:29:00,33.2,31.0,30.30,SSE,150,2.0,-999.0,90,-99.99,,,0.01,weatherlink.com 1.10,2013-04-21 14:29:00,
2013-04-21 09:44:00,33.4,31.0,30.30,SE,128,1.0,-999.0,89,-99.99,,,0.02,weatherlink.com 1.10,2013-04-21 14:44:00,
2013-04-21 09:59:00,33.7,31.0,30.29,South,177,0.0,-999.0,88,-99.99,,,0.02,weatherlink.com 1.10,2013-04-21 14:59:00,
2013-04-21 10:14:00,33.8,31.0,30.28,SE,138,2.0,-999.0,88,-99.99,,,0.02,weatherlink.com 1.10,2013-04-21 15:14:00,
2013-04-21 10:29:00,34.0,31.0,30.28,South,169,1.0,-999.0,87,-99.99,,,0.02,weatherlink.com 1.10,2013-04-21 15:29:00,
2013-04-21 10:44:00,33.7,31.0,30.28,South,191,2.0,-999.0,88,-99.99,,,0.02,weatherlink.com 1.10,2013-04-21 15:44:00,
2013-04-21 10:59:00,33.5,31.0,30.28,ESE,121,3.0,-999.0,90,-99.99,,,0.02,weatherlink.com 1.10,2013-04-21 15:59:00,
2013-04-21 11:14:00,33.2,31.0,30.28,SSE,165,0.0,-999.0,91,-99.99,,,0.02,weatherlink.com 1.10,2013-04-21 16:14:00,
2013-04-21 11:29:00,33.2,31.0,30.27,ESE,122,0.0,-999.0,92,-99.99,,,0.02,weatherlink.com 1.10,2013-04-21 16:29:00,
2013-04-21 11:44:00,33.2,31.0,30.26,South,174,2.0,-999.0,93,-99.99,,,0.03,weatherlink.com 1.10,2013-04-21 16:44:00,
2013-04-21 11:59:00,33.4,32.0,30.25,ESE,103,0.0,-999.0,93,-99.99,,,0.04,weatherlink.com 1.10,2013-04-21 16:59:00,
2013-04-21 12:15:00,33.5,32.0,30.23,South,180,2.0,-999.0,93,-99.99,,,0.05,weatherlink.com 1.10,2013-04-21 17:15:00,
2013-04-21 12:30:00,34.1,32.0,30.23,ESE,117,2.0,-999.0,93,-99.99,,,0.05,weatherlink.com 1.10,2013-04-21 17:30:00,
2013-04-21 12:45:00,34.9,33.0,30.22,ESE,109,4.0,-999.0,93,-99.99,,,0.05,weatherlink.com 1.10,2013-04-21 17:45:00,
2013-04-21 13:00:00,35.6,34.0,30.21,SSE,148,3.0,-999.0,92,-99.99,,,0.06,weatherlink.com 1.10,2013-04-21 18:00:00,
2013-04-21 13:14:00,36.3,34.0,30.21,SSE,159,3.0,-999.0,90,-99.99,,,0.06,weatherlink.com 1.10,2013-04-21 18:14:00,
2013-04-21 13:29:00,36.6,33.0,30.21,South,190,0.0,-999.0,87,-99.99,,,0.07,weatherlink.com 1.10,2013-04-21 18:29:00,
2013-04-21 13:44:00,36.8,33.0,30.20,SSE,165,7.0,-999.0,85,-99.99,,,0.07,weatherlink.com 1.10,2013-04-21 18:44:00,
2013-04-21 13:59:00,37.8,34.0,30.18,ESE,119,5.0,-999.0,85,-99.99,,,0.07,weatherlink.com 1.10,2013-04-21 18:59:00,
2013-04-21 14:15:00,38.5,33.0,30.16,SSW,192,2.0,-999.0,81,-99.99,,,0.07,weatherlink.com 1.10,2013-04-21 19:15:00,
2013-04-21 14:30:00,39.2,34.0,30.16,ESE,119,2.0,-999.0,81,-99.99,,,0.07,weatherlink.com 1.10,2013-04-21 19:30:00,
2013-04-21 14:45:00,40.5,34.0,30.15,SE,128,2.0,-999.0,78,-99.99,,,0.07,weatherlink.com 1.10,2013-04-21 19:45:00,
2013-04-21 15:00:00,41.1,35.0,30.13,East,84,3.0,-999.0,78,-99.99,,,0.07,weatherlink.com 1.10,2013-04-21 20:00:00,
2013-04-21 15:15:00,41.8,34.0,30.12,ESE,115,3.0,-999.0,75,-99.99,,,0.07,weatherlink.com 1.10,2013-04-21 20:15:00,
2013-04-21 15:30:00,42.6,35.0,30.11,ESE,122,2.0,-999.0,73,-99.99,,,0.07,weatherlink.com 1.10,2013-04-21 20:30:00,
2013-04-21 15:45:00,43.1,34.0,30.11,East,98,1.0,-999.0,70,-99.99,,,0.07,weatherlink.com 1.10,2013-04-21 20:45:00,
2013-04-21 16:00:00,43.3,34.0,30.10,East,86,3.0,-999.0,70,-99.99,,,0.07,weatherlink.com 1.10,2013-04-21 21:00:00,
2013-04-21 16:15:00,43.8,34.0,30.10,SE,134,4.0,-999.0,68,-99.99,,,0.07,weatherlink.com 1.10,2013-04-21 21:15:00,
2013-04-21 16:30:00,43.6,34.0,30.09,SSE,165,3.0,-999.0,68,-99.99,,,0.07,weatherlink.com 1.10,2013-04-21 21:30:00,
2013-04-21 16:45:00,43.5,34.0,30.09,ESE,114,1.0,-999.0,69,-99.99,,,0.07,weatherlink.com 1.10,2013-04-21 21:45:00,
2013-04-21 17:00:00,43.8,35.0,30.08,SSW,198,0.0,-999.0,70,-99.99,,,0.07,weatherlink.com 1.10,2013-04-21 22:00:00,
2013-04-21 17:16:00,44.5,35.0,30.08,SE,143,0.0,-999.0,69,-99.99,,,0.07,weatherlink.com 1.10,2013-04-21 22:16:00,
2013-04-21 17:31:00,44.8,36.0,30.07,South,190,0.0,-999.0,70,-99.99,,,0.07,weatherlink.com 1.10,2013-04-21 22:31:00,
2013-04-21 17:46:00,45.1,35.0,30.06,SE,144,0.0,-999.0,69,-99.99,,,0.07,weatherlink.com 1.10,2013-04-21 22:46:00,
2013-04-21 18:01:00,45.2,36.0,30.06,South,187,0.0,-999.0,69,-99.99,,,0.07,weatherlink.com 1.10,2013-04-21 23:01:00,
2013-04-21 18:15:00,45.2,36.0,30.05,ESE,117,0.0,-999.0,69,-99.99,,,0.07,weatherlink.com 1.10,2013-04-21 23:15:00,
2013-04-21 18:30:00,45.1,36.0,30.05,SE,126,0.0,-999.0,70,-99.99,,,0.07,weatherlink.com 1.10,2013-04-21 23:30:00,
2013-04-21 18:45:00,44.9,36.0,30.04,SE,126,0.0,-999.0,70,-99.99,,,0.07,weatherlink.com 1.10,2013-04-21 23:45:00,
2013-04-21 19:00:00,44.8,36.0,30.04,SE,126,0.0,-999.0,70,-99.99,,,0.07,weatherlink.com 1.10,2013-04-22 00:00:00,
2013-04-21 19:16:00,44.5,36.0,30.04,SE,126,0.0,-999.0,71,-99.99,,,0.07,weatherlink.com 1.10,2013-04-22 00:16:00,
2013-04-21 19:31:00,44.1,37.0,30.04,SE,126,0.0,-999.0,75,-99.99,,,0.09,weatherlink.com 1.10,2013-04-22 00:31:00,
2013-04-21 19:46:00,43.8,38.0,30.04,SE,126,0.0,-999.0,81,-99.99,,,0.11,weatherlink.com 1.10,2013-04-22 00:46:00,
2013-04-21 20:01:00,43.1,38.0,30.05,SE,126,0.0,-999.0,82,-99.99,,,0.12,weatherlink.com 1.10,2013-04-22 01:01:00,
2013-04-21 20:16:00,42.3,38.0,30.06,SE,126,0.0,-999.0,84,-99.99,,,0.12,weatherlink.com 1.10,2013-04-22 01:16:00,
2013-04-21 20:31:00,41.8,38.0,30.08,SE,126,0.0,-999.0,85,-99.99,,,0.13,weatherlink.com 1.10,2013-04-22 01:31:00,
2013-04-21 20:46:00,41.3,38.0,30.08,SW,226,0.0,-999.0,88,-99.99,,,0.13,weatherlink.com 1.10,2013-04-22 01:46:00,
2013-04-21 21:01:00,41.2,38.0,30.08,SW,226,0.0,-999.0,89,-99.99,,,0.15,weatherlink.com 1.10,2013-04-22 02:01:00,
2013-04-21 21:16:00,40.6,37.0,30.08,SW,226,0.0,-999.0,88,-99.99,,,0.17,weatherlink.com 1.10,2013-04-22 02:16:00,
2013-04-21 21:31:00,40.1,37.0,30.08,SW,226,0.0,-999.0,89,-99.99,,,0.20,weatherlink.com 1.10,2013-04-22 02:31:00,
2013-04-21 21:46:00,39.9,38.0,30.07,SW,226,0.0,-999.0,91,-99.99,,,0.23,weatherlink.com 1.10,2013-04-22 02:46:00,
2013-04-21 22:01:00,40.1,38.0,30.07,SW,226,0.0,-999.0,92,-99.99,,,0.27,weatherlink.com 1.10,2013-04-22 03:01:00,
2013-04-21 22:16:00,40.2,38.0,30.06,SW,226,0.0,-999.0,93,-99.99,,,0.30,weatherlink.com 1.10,2013-04-22 03:16:00,
2013-04-21 22:31:00,40.8,39.0,30.06,SW,226,0.0,-999.0,94,-99.99,,,0.31,weatherlink.com 1.10,2013-04-22 03:31:00,
2013-04-21 22:46:00,41.5,40.0,30.06,SW,226,0.0,-999.0,95,-99.99,,,0.31,weatherlink.com 1.10,2013-04-22 03:46:00,
2013-04-21 23:01:00,42.3,41.0,30.06,SW,229,0.0,-999.0,96,-99.99,,,0.00,weatherlink.com 1.10,2013-04-22 04:01:00,
2013-04-21 23:16:00,42.9,42.0,30.06,WSW,246,0.0,-999.0,96,-99.99,,,0.02,weatherlink.com 1.10,2013-04-22 04:16:00,
2013-04-21 23:31:00,43.2,42.0,30.06,SSE,150,0.0,-999.0,96,-99.99,,,0.03,weatherlink.com 1.10,2013-04-22 04:31:00,
2013-04-21 23:46:00,43.6,43.0,30.06,South,187,0.0,-999.0,96,-99.99,,,0.03,weatherlink.com 1.10,2013-04-22 04:46:00,